SCP
0 0 0 0 0 0 0 0 0 0 0 0 0 0 0 0 1 1 1 1 1 1 1 1 1 1 1 1 1 1 1 1 1 1 1 1 1 0 0 0 0 0 0 0
0 0 0 0 0 0 0 0 0 0 0 0 0 0 0 0 0 1 1 1 1 1 1 1 1 1 1 1 1 1 1 1 1 1 1 1 1 0 0 0 0 0 0 0
0 0 0 0 0 0 0 0 0 0 0 0 0 0 0 0 1 1 1 1 1 1 1 1 1 1 1 1 0 1 1 1 1 1 1 1 1 0 0 0 0 0 0 0
0 0 0 0 0 0 0 0 0 0 0 0 0 0 0 0 1 1 1 1 1 1 1 1 1 1 0 0 0 0 0 1 1 1 1 1 0 0 0 0 0 0 0 0
0 0 0 0 0 0 0 0 0 0 0 0 0 0 0 0 1 1 1 1 0 0 0 0 0 0 0 0 0 0 0 0 0 0 0 0 0 0 0 0 0 0 0 0
0 0 0 0 0 0 0 0 0 0 0 0 0 0 0 0 0 0 0 0 0 0 0 0 0 0 0 0 0 0 0 0 0 0 0 0 0 0 0 0 0 0 0 0
0 0 0 0 0 0 0 0 0 0 0 0 0 0 0 0 0 0 0 0 0 0 0 0 0 0 0 0 0 0 0 0 0 0 0 0 0 0 0 0 0 0 0 0
0 0 0 0 0 0 0 0 0 0 0 0 0 0 0 0 0 0 0 0 0 0 0 0 0 0 0 0 0 0 0 0 0 0 0 0 0 0 0 0 0 0 0 0
0 0 0 0 0 0 0 0 0 0 0 0 0 0 0 0 0 0 0 0 0 0 0 0 0 0 0 0 0 0 0 0 0 0 0 0 0 0 0 0 0 0 0 0
0 0 0 0 0 0 0 0 0 0 0 0 0 0 0 0 0 0 0 0 0 0 0 0 0 0 0 0 0 0 0 0 0 0 0 0 0 0 0 0 0 0 0 0
0 0 0 0 0 0 0 0 0 0 0 0 0 0 0 0 0 0 0 0 0 0 0 0 0 0 0 0 0 0 0 0 0 0 0 0 0 0 0 0 0 0 0 0
0 0 0 0 0 0 0 0 0 0 0 0 0 0 0 0 0 0 0 0 0 0 0 0 0 0 0 0 0 0 0 0 0 0 0 0 0 0 0 0 0 0 0 0
0 0 0 0 0 0 0 0 0 0 0 0 0 0 0 0 0 0 0 0 0 0 0 0 0 0 0 0 0 0 0 0 0 0 0 0 0 0 0 0 0 0 0 0
0 0 0 0 0 0 0 0 0 0 0 0 0 0 0 0 0 0 0 0 0 0 0 0 0 0 0 0 0 0 0 0 0 0 0 0 0 0 0 0 0 0 0 0
0 0 0 0 0 0 0 0 0 0 0 0 0 0 0 0 0 0 0 0 0 0 0 0 0 0 0 0 0 0 0 0 0 0 0 0 0 0 0 0 0 0 0 0
0 0 0 0 0 0 0 0 0 0 0 0 0 0 0 0 0 0 0 0 0 0 0 0 0 0 0 0 0 0 0 0 0 0 0 0 0 0 0 0 0 0 0 0
0 0 0 0 0 0 0 0 0 0 0 0 0 0 0 0 0 0 0 0 0 0 0 0 0 0 0 0 0 0 0 0 0 0 0 0 0 0 0 0 0 0 0 0
0 0 0 0 0 0 0 0 0 0 0 0 0 0 0 0 0 0 0 0 0 0 0 0 0 0 0 0 0 0 0 0 0 0 0 0 0 0 0 0 0 0 0 0
0 0 0 0 0 0 0 0 0 0 0 0 0 0 0 0 0 0 0 0 0 0 0 0 0 0 0 0 0 0 0 0 0 0 0 0 0 0 0 0 0 0 0 0
0 0 0 0 0 0 0 0 0 0 0 0 0 0 0 0 0 0 0 0 0 0 0 0 0 0 0 0 0 0 0 0 0 0 0 0 0 0 0 0 0 0 0 0
0 0 0 0 0 0 0 0 0 0 0 0 0 0 0 0 0 0 0 0 0 0 0 0 0 0 0 0 0 0 0 0 0 0 0 0 0 0 0 0 0 0 0 0
0 0 0 0 0 0 0 0 0 0 0 0 0 0 0 0 0 0 0 0 0 0 0 0 0 0 0 0 0 0 0 0 0 0 0 0 0 0 0 0 -0 0 0 0
0 0 0 0 0 0 0 0 0 0 0 0 0 0 0 0 0 0 0 0 0 0 0 0 0 0 0 0 0 0 0 0 0 0 0 0 0 0 0 -0 -0 -0 -0 -0
0 0 0 0 0 0 0 0 0 0 0 0 0 0 0 0 0 0 0 0 0 0 0 0 0 0 0 0 0 0 0 0 0 0 0 0 0 0 0 -0 -0 -0 -0 -0
0 0 0 0 0 0 0 0 0 0 0 0 0 0 0 0 0 0 0 0 0 0 0 0 0 0 0 0 0 0 0 0 0 0 0 0 0 0 0 0 -0 -0 -0 -0
0 0 0 0 0 0 0 0 0 0 0 0 0 0 0 0 0 0 0 0 0 0 0 0 0 0 0 0 0 0 0 0 0 0 0 0 0 0 0 0 0 0 -0 -0
Wind_Speed
1 2 4 8 7 7 5 3 4 4 1 4 7 7 5 4 7 8 9 10 11 9 7 7 8 8 8 7 7 5 5 3 2 2 2 2 2 2 1 1 2 1 1 1
2 6 13 9 6 6 5 4 4 3 1 4 6 5 3 4 6 7 9 10 10 9 7 8 9 9 8 8 7 6 5 3 2 2 2 2 3 2 2 2 3 3 2 1
7 9 7 7 7 6 5 4 4 2 2 5 6 3 2 3 5 7 9 10 9 10 9 8 9 9 8 8 7 7 6 4 4 3 3 4 3 2 2 3 3 3 3 3
7 10 7 6 7 6 5 4 3 3 4 0 3 2 1 3 4 6 7 8 9 9 9 8 8 8 7 7 6 7 7 6 5 4 4 5 4 3 2 1 2 3 4 4
7 4 4 6 7 4 5 3 4 3 4 2 3 3 2 3 3 4 6 8 9 9 9 9 8 7 7 6 6 6 7 7 7 6 4 5 4 3 3 2 3 4 4 5
9 6 4 6 4 2 3 5 6 6 5 2 2 3 2 2 5 7 8 9 9 9 10 9 8 7 7 7 7 6 7 7 7 7 6 5 5 5 4 3 3 3 3 4
6 6 4 2 0 2 5 7 5 5 5 2 1 3 2 3 4 9 11 10 9 9 9 9 8 7 7 7 7 6 7 6 6 6 6 6 5 5 4 3 3 3 3 3
1 5 3 1 3 3 2 9 7 4 3 3 2 1 2 2 5 9 11 10 10 9 8 9 8 6 6 6 6 6 6 5 5 6 6 5 5 4 3 3 3 3 3 3
4 5 4 2 2 5 3 3 7 7 2 1 1 1 0 5 7 8 10 10 9 9 9 8 7 6 6 6 5 5 5 5 5 5 5 5 5 5 5 4 4 4 3 3
5 2 4 2 4 3 4 6 6 5 4 2 2 3 5 8 10 10 10 10 9 9 8 7 7 6 5 5 4 5 5 5 5 5 4 4 4 4 4 4 5 5 4 4
4 3 3 4 2 2 1 2 5 4 5 5 3 5 6 12 12 12 11 10 10 9 8 7 6 5 5 4 4 4 4 5 5 5 5 5 4 4 5 5 5 5 4 4
3 5 0 2 3 2 3 4 6 5 3 4 4 5 1 7 9 11 12 11 10 9 8 7 6 5 4 4 4 4 3 4 4 4 5 5 5 5 6 6 5 5 5 5
3 6 3 6 7 5 3 1 3 5 5 4 4 3 2 7 9 10 11 11 10 9 8 7 6 5 4 3 3 3 3 3 3 4 5 5 5 5 5 5 5 5 6 6
5 5 6 6 6 3 2 2 2 5 4 3 5 6 6 9 11 10 11 11 10 9 8 7 5 4 3 3 3 3 3 3 3 4 4 4 4 4 4 4 5 5 6 7
5 3 1 3 3 3 3 3 1 3 6 6 7 9 11 13 14 13 12 11 11 9 9 8 6 5 4 4 3 4 4 3 3 4 4 4 3 4 5 5 5 6 6 6
4 3 2 2 2 1 2 3 0 2 4 6 7 4 6 9 9 10 11 12 11 10 9 8 8 7 5 5 4 4 4 3 3 4 4 4 4 5 5 5 5 5 6 6
2 4 3 2 3 3 3 3 1 3 3 7 7 7 12 11 12 13 12 12 11 10 9 9 8 7 6 5 5 5 3 3 3 3 3 4 4 4 4 4 5 5 5 5
4 3 3 0 3 0 4 2 5 7 3 3 7 11 13 11 8 6 8 10 10 10 9 9 8 7 6 5 4 4 4 3 3 3 3 3 3 4 4 4 4 4 3 4
6 6 3 2 1 2 3 1 2 5 2 4 11 12 10 11 8 4 4 7 8 8 9 8 8 7 6 6 5 4 3 3 3 3 3 3 3 3 4 4 3 3 3 4
3 5 4 2 2 4 5 2 4 8 1 3 10 14 13 10 6 5 6 8 9 9 8 8 8 7 6 5 5 5 4 3 3 2 2 3 3 3 4 3 3 2 3 3
2 2 2 3 2 4 4 2 3 2 7 7 9 13 11 5 5 8 10 9 9 9 9 9 8 7 5 5 5 5 4 3 2 3 3 3 3 3 3 3 2 3 3 4
3 2 2 3 2 5 3 1 3 5 4 8 8 9 8 9 11 11 11 11 11 10 9 8 7 6 5 5 5 5 3 2 3 3 3 3 2 2 3 3 3 3 3 4
1 4 4 4 4 4 1 3 4 7 9 7 8 10 13 13 12 12 10 10 9 9 8 7 8 7 5 5 5 5 3 3 3 3 3 2 2 2 3 3 3 2 3 3
1 2 4 3 1 2 5 6 6 9 10 10 12 13 13 13 13 12 10 9 8 7 7 6 7 7 5 4 4 4 3 4 4 3 2 2 3 3 3 2 2 2 2 2
3 1 3 3 3 5 4 6 10 11 13 14 12 11 12 14 13 11 10 9 8 7 6 6 7 6 5 4 4 4 3 4 4 3 2 3 3 3 3 3 2 2 1 3
3 6 7 7 9 7 6 7 12 14 13 14 14 11 10 11 12 10 9 8 7 7 6 7 6 6 5 5 4 3 3 4 4 3 2 2 2 2 2 3 2 4 2 3
Wind_Direction
231 102 237 233 211 209 239 275 287 275 250 104 130 144 154 142 120 120 119 114 108 99 86 72 71 68 63 55 56 63 62 62 105 123 131 132 129 116 95 75 72 65 56 104
3 253 238 239 244 230 248 265 277 305 338 112 123 128 138 127 131 130 125 119 115 106 87 72 66 59 54 48 42 49 55 48 77 113 146 131 125 113 89 54 49 41 37 38
215 246 249 237 246 249 252 214 219 208 45 69 107 86 89 98 103 111 115 116 111 109 99 79 70 63 53 45 38 42 42 42 52 65 86 87 85 84 72 52 42 28 26 37
242 253 261 252 247 216 243 222 172 137 96 332 116 161 227 139 98 105 110 109 109 104 97 88 75 66 58 47 40 38 39 38 39 49 74 89 94 93 77 75 67 37 33 38
258 250 238 242 243 206 208 181 112 112 116 76 32 114 273 126 128 125 121 113 108 102 98 91 81 72 64 54 48 38 42 41 41 50 70 85 81 83 76 61 67 52 41 35
256 265 236 228 235 179 144 67 48 49 73 64 263 128 240 223 191 158 136 123 113 105 98 90 80 71 58 47 46 42 45 40 38 48 59 79 85 82 77 60 55 48 43 36
301 293 272 237 339 15 84 83 38 9 16 272 315 99 244 250 169 152 141 129 117 108 101 93 81 70 58 48 46 47 47 44 38 47 54 60 72 80 87 84 66 59 53 46
256 295 285 224 160 171 147 131 147 181 215 275 1 96 287 34 110 123 127 127 119 109 102 97 90 79 68 56 49 50 48 45 41 48 51 48 51 64 69 67 68 63 57 48
196 261 279 244 183 138 133 135 157 134 143 139 237 152 60 102 114 126 131 129 125 118 111 104 94 83 73 62 48 45 48 47 42 49 58 53 50 59 67 63 65 67 58 55
177 251 304 309 51 39 142 147 97 111 143 210 225 206 202 180 170 157 148 138 130 123 116 107 97 89 77 69 57 48 48 48 45 50 57 66 55 58 67 69 66 68 61 56
154 149 331 23 75 215 56 86 109 120 146 152 204 248 211 188 176 164 156 145 140 133 127 117 107 99 90 75 63 53 47 48 47 54 59 61 58 59 64 64 60 62 63 59
135 118 95 282 262 206 156 164 141 145 191 162 169 253 279 173 159 153 148 144 139 134 127 119 114 104 92 79 69 59 55 55 52 60 66 64 59 60 65 63 57 58 59 56
110 102 70 349 341 359 37 100 147 132 122 151 163 231 74 122 132 142 142 141 137 132 125 120 115 107 100 90 79 69 62 67 68 70 69 62 57 60 62 61 60 60 62 59
104 105 146 184 223 251 287 275 170 122 138 178 190 173 159 148 147 148 146 143 140 138 135 130 125 119 113 102 91 86 78 79 83 77 73 64 57 60 62 63 63 62 62 62
85 105 157 213 228 213 237 267 218 160 175 173 185 173 181 171 164 159 153 147 145 146 145 143 141 136 129 116 105 97 92 82 83 81 76 69 59 60 64 66 62 64 66 69
61 101 54 336 303 344 23 5 13 126 123 128 133 163 162 143 141 150 156 156 156 158 155 149 144 143 141 134 123 109 98 93 87 83 78 71 65 61 63 63 66 66 63 62
58 94 75 302 310 39 358 303 98 100 122 147 171 175 144 144 157 164 164 163 163 161 156 153 152 149 144 138 130 124 118 105 97 87 77 73 74 66 60 68 68 67 64 67
138 109 117 304 23 160 252 302 115 108 78 124 125 141 152 149 145 146 154 159 161 159 153 149 146 140 138 135 135 133 123 110 101 93 86 84 82 74 70 68 66 65 66 72
149 138 123 113 140 243 284 298 141 117 69 125 130 135 128 120 102 101 141 148 152 149 144 142 139 136 136 138 139 124 109 106 108 102 94 96 95 87 83 77 67 68 73 70
102 113 122 134 160 217 239 254 123 96 100 174 143 143 143 135 145 174 152 131 127 128 130 130 128 126 129 136 130 122 121 115 115 117 112 105 100 94 93 87 74 67 81 84
53 62 130 166 195 250 249 242 120 151 217 170 153 150 150 156 159 141 131 124 126 126 127 127 128 130 138 137 126 123 125 132 135 117 102 89 85 102 99 81 72 78 79 76
164 148 166 141 170 246 285 112 166 192 132 134 137 139 126 117 117 119 123 125 126 125 127 129 129 131 136 133 124 126 141 155 126 107 95 87 78 99 99 85 74 81 92 83
153 174 162 162 207 252 2 115 119 121 118 121 125 128 125 123 126 125 125 127 126 128 130 128 131 131 132 134 134 139 157 138 119 102 100 92 74 76 91 100 93 79 89 100
330 98 99 85 79 85 85 89 92 108 114 120 127 129 129 128 130 128 129 128 127 127 130 128 127 127 131 137 140 149 147 126 122 119 115 104 96 76 64 71 91 103 110 117
218 90 88 103 142 101 86 113 117 109 112 116 120 124 129 130 132 131 132 132 131 129 128 129 132 134 141 143 143 150 141 123 118 113 110 102 97 105 86 70 64 103 134 179
213 169 165 193 187 153 162 148 130 124 127 129 126 121 126 130 131 130 132 132 132 133 131 130 131 135 142 145 148 152 144 134 126 113 116 128 123 125 118 108 56 31 57 87